FW0960 Weather Reports


time (UTC)temp
C
wind
direction
speed
KPH
gust
KPH
rain 1hr
cm
rain 24hr
cm
rain mn
cm
humidity
%
barometer
mb
20260905140930 25 198 0.0 0.0 0.00 0.00 0.00 76 1011.8
20260905140432 25 198 0.0 0.0 0.00 0.00 0.00 75 1011.8
20260905135430 25 184 0.0 0.0 0.00 0.00 0.00 76 1011.7
20260905134933 25 184 0.0 0.0 0.00 0.00 0.00 76 1011.6
20260905134430 25 184 0.0 0.0 0.00 0.00 0.00 78 1011.6
20260905133937 25 184 0.0 0.0 0.00 0.00 0.00 78 1011.6
20260905133434 25 184 0.0 0.0 0.00 0.00 0.00 77 1011.5
20260905132935 24 184 0.0 0.0 0.00 0.00 0.00 79 1011.4
20260905132432 24 184 0.0 0.0 0.00 0.00 0.00 77 1011.4
20260905131929 24 184 0.0 0.0 0.00 0.00 0.00 77 1011.4
20260905131431 24 184 0.0 0.0 0.00 0.00 0.00 78 1011.3
20260905130930 24 184 0.0 0.0 0.00 0.00 0.00 77 1011.4
20260905130431 24 184 0.0 0.0 0.00 0.00 0.00 74 1011.2
20260905125430 24 184 0.0 0.0 0.00 0.00 0.00 79 1011.4
20260905124932 24 184 0.0 0.0 0.00 0.00 0.00 78 1011.4
20260905124432 24 184 0.0 0.0 0.00 0.00 0.00 78 1011.4
20260905123431 24 184 0.0 0.0 0.00 0.00 0.00 85 1011.5
20260905122933 24 184 0.0 0.0 0.00 0.00 0.00 85 1011.6
20260905122431 23 184 0.0 0.0 0.00 0.00 0.00 85 1011.6
20260905121454 23 183 0.0 0.0 0.00 0.00 0.00 87 1011.5
20260905120932 23 148 0.0 0.0 0.00 0.00 0.00 89 1011.3
20260905120434 23 148 0.0 0.0 0.00 0.00 0.00 91 1011.2
20260905115932 23 148 0.0 0.0 0.00 0.00 0.00 93 1011.1
20260905115431 23 148 0.0 0.0 0.00 0.00 0.00 94 1011.1
20260905114935 23 148 0.0 0.0 0.00 0.00 0.00 96 1010.9
20260905114436 23 148 0.0 0.0 0.00 0.00 0.00 96 1011.0
20260905113441 23 148 0.0 0.0 0.00 0.00 0.00 97 1010.9
20260905112434 22 148 0.0 0.0 0.00 0.00 0.00 98 1010.9
20260905111433 22 148 0.0 0.0 0.00 0.00 0.00 98 1010.8
20260905110430 22 148 0.0 0.0 0.00 0.00 0.00 98 1010.8
20260905105929 22 148 0.0 0.0 0.00 0.00 0.00 98 1010.7
20260905105432 22 148 0.0 0.0 0.00 0.00 0.00 98 1010.5
20260905104937 22 148 0.0 0.0 0.00 0.00 0.00 98 1010.4
20260905104023 22 148 0.0 0.0 0.00 0.00 0.00 98 1010.3
20260905102932 22 148 0.0 0.0 0.00 0.00 0.00 98 1010.3
20260905102430 22 148 0.0 0.0 0.00 0.03 0.00 98 1010.1
20260905101929 22 148 0.0 0.0 0.00 0.03 0.00 97 1010.0
20260905101432 22 148 0.0 0.0 0.00 0.03 0.00 97 1010.0
20260905100934 22 148 0.0 0.0 0.00 0.03 0.00 97 1009.9
20260905100430 22 148 0.0 0.0 0.00 0.03 0.00 97 1009.9
20260905095430 22 148 0.0 0.0 0.00 0.03 0.00 97 1009.9
20260905094926 22 148 0.0 0.0 0.00 0.03 0.00 97 1009.9
20260905094442 22 148 0.0 0.0 0.00 0.03 0.00 97 1009.9
20260905093920 23 148 0.0 0.0 0.00 0.03 0.00 96 1010.0
20260905093440 23 148 0.0 0.0 0.00 0.03 0.00 96 1010.1
20260905092413 23 148 0.0 0.0 0.00 0.03 0.00 96 1010.0
20260905091910 23 148 0.0 0.0 0.00 0.03 0.00 96 1009.9
20260905091417 23 148 0.0 0.0 0.00 0.03 0.00 95 1010.0
20260905090910 23 148 0.0 0.0 0.00 0.03 0.00 95 1010.0
20260905090410 23 148 0.0 0.0 0.00 0.03 0.00 95 1010.1
20260905085909 23 148 0.0 0.0 0.00 0.03 0.00 95 1010.1
20260905085410 23 148 0.0 0.0 0.00 0.03 0.00 95 1009.9
20260905084904 23 148 0.0 0.0 0.00 0.03 0.00 95 1010.1
20260905084408 23 148 0.0 0.0 0.00 0.03 0.00 95 1010.2
20260905083902 23 148 0.0 0.0 0.00 0.03 0.00 95 1010.0
20260905083402 23 148 0.0 0.0 0.00 0.03 0.00 95 1010.0
20260905082401 23 148 0.0 0.0 0.00 0.05 0.00 94 1010.0
20260905080839 23 148 0.0 0.0 0.00 0.05 0.00 94 1010.1
20260905080333 23 148 0.0 0.0 0.00 0.05 0.00 94 1010.2
20260905075837 23 148 0.0 0.0 0.00 0.05 0.00 94 1010.2
20260905075335 23 148 0.0 0.0 0.00 0.05 0.00 94 1010.2
20260905074835 23 148 0.0 0.0 0.00 0.08 0.00 94 1010.1
20260905073331 23 148 0.0 0.0 0.00 0.10 0.00 93 1009.9
20260905072840 24 148 0.0 0.0 0.00 0.10 0.00 93 1010.0
20260905072342 24 148 0.0 0.0 0.00 0.13 0.00 93 1010.1
20260905071333 24 148 0.0 0.0 0.00 0.18 0.00 93 1010.2
20260905070831 24 148 0.0 0.0 0.00 0.20 0.00 93 1010.5
20260905070333 25 148 0.0 0.0 0.00 0.25 0.00 93 1010.5
20260905065337 25 148 0.0 0.0 0.00 0.33 0.00 92 1010.6
20260905064839 25 148 0.0 0.0 0.00 0.36 0.00 92 1010.6
20260905063835 25 148 0.0 0.0 0.00 0.38 0.00 92 1010.5
20260905063331 25 148 0.0 0.0 0.00 0.41 0.00 92 1010.6
20260905062831 25 148 0.0 0.0 0.00 0.41 0.00 91 1010.6
20260905061830 25 148 0.0 0.0 0.00 0.48 0.00 90 1010.7
20260905061329 25 148 0.0 0.0 0.00 0.51 0.00 90 1010.7
20260905060825 25 148 0.0 0.0 0.00 0.56 0.00 90 1010.6
20260905055820 25 148 0.0 0.0 0.00 0.81 0.00 90 1010.7
20260905055323 25 148 0.0 0.0 0.00 1.40 0.00 90 1010.5
20260905054821 25 148 0.0 0.0 0.00 1.60 0.00 91 1010.5
20260905054318 25 148 0.0 0.0 0.00 1.60 0.00 91 1010.4
20260905053818 25 148 0.0 0.0 0.00 1.60 0.00 90 1010.5
20260905053313 25 148 0.0 0.0 0.00 1.60 0.00 91 1010.7
20260905052815 25 148 0.0 0.0 0.00 1.60 0.00 91 1010.7
20260905052329 25 148 0.0 0.0 0.00 1.60 0.00 91 1010.8
20260905051310 25 144 0.0 0.0 0.00 1.60 0.00 91 1010.9
20260905050305 25 145 0.0 0.0 0.00 1.60 0.00 91 1011.0
20260905045806 25 144 0.0 0.0 0.00 1.60 0.00 91 1011.1
20260905044800 25 144 0.0 0.0 0.00 1.60 0.00 90 1011.3
20260905044255 25 144 0.0 0.0 0.00 1.60 0.00 90 1011.3
20260905043751 25 144 0.0 0.0 0.00 1.60 0.00 90 1011.4
20260905043242 25 144 0.0 0.0 0.00 1.60 0.00 89 1011.5
20260905042233 25 144 0.0 0.0 0.00 1.60 0.00 89 1011.4
20260905041743 25 145 0.0 0.0 0.00 1.60 0.00 89 1011.5
20260905041233 25 144 0.0 0.0 0.00 1.60 0.00 89 1011.5
20260905040735 25 144 0.0 0.0 0.00 1.60 0.00 89 1011.4
20260905040238 25 144 0.0 0.0 0.00 1.60 0.00 89 1011.4
20260905035738 25 145 0.0 0.0 0.00 1.60 1.60 88 1011.4
20260905035233 25 144 0.0 0.0 0.00 1.60 1.60 88 1011.3
20260905034731 25 144 0.0 1.6 0.00 1.60 1.60 87 1011.4
20260905034232 25 145 0.0 1.6 0.00 1.60 1.60 87 1011.3
20260905033730 25 145 0.0 0.0 0.00 1.60 1.60 87 1011.4
20260905033231 25 145 0.0 0.0 0.00 1.60 1.60 88 1011.5
20260905032732 25 145 0.0 0.0 0.00 1.60 1.60 88 1011.6
20260905031731 25 144 0.0 0.0 0.00 1.60 1.60 89 1011.7
20260905031231 25 145 0.0 0.0 0.00 1.60 1.60 89 1011.7
20260905030732 25 144 0.0 0.0 0.00 1.60 1.60 90 1011.8
20260905030232 25 145 0.0 0.0 0.00 1.60 1.60 90 1012.0
20260905025730 25 144 0.0 0.0 0.00 1.60 1.60 90 1011.9
20260905025232 25 145 0.0 0.0 0.00 1.60 1.60 89 1011.9
20260905024736 25 144 0.0 0.0 0.00 1.60 1.60 89 1012.1
20260905023835 25 145 0.0 0.0 0.00 1.60 1.60 90 1011.9
20260905022732 25 144 0.0 0.0 0.00 1.60 1.60 91 1012.0
20260905022233 25 144 0.0 0.0 0.00 1.60 1.60 90 1011.9
20260905021731 25 144 0.0 0.0 0.00 1.60 1.60 89 1011.8
20260905021231 25 144 0.0 0.0 0.00 1.60 1.60 89 1012.0
20260905020736 25 144 0.0 0.0 0.00 1.60 1.60 89 1012.0
20260905020229 25 145 0.0 0.0 0.00 1.60 1.60 90 1011.9
20260905015731 25 144 0.0 0.0 0.00 1.60 1.60 90 1012.0
20260905014734 25 144 0.0 0.0 0.00 1.60 1.60 91 1012.1
20260905014232 25 144 0.0 0.0 0.00 1.60 1.60 90 1012.0
20260905013732 25 144 0.0 0.0 0.00 1.60 1.60 89 1012.0
20260905013232 25 144 0.0 0.0 0.00 1.60 1.60 88 1012.0
20260905012731 25 144 0.0 0.0 0.00 1.60 1.60 88 1012.1
20260905012235 25 144 0.0 0.0 0.00 1.60 1.60 88 1012.0
20260905011737 25 144 0.0 0.0 0.00 1.60 1.60 88 1012.0
20260905011238 26 144 0.0 0.0 0.00 1.60 1.60 88 1012.1
20260905010218 26 144 0.0 0.0 0.00 1.60 1.60 88 1012.1
20260905005220 26 145 0.0 0.0 0.00 1.60 1.60 87 1012.1
20260905004215 26 144 0.0 0.0 0.00 1.60 1.60 87 1012.0
20260905003209 26 145 0.0 0.0 0.00 1.60 1.60 87 1011.9
20260905002710 26 145 0.0 0.0 0.00 1.60 1.60 85 1011.9
20260905002208 26 144 0.0 0.0 0.00 1.60 1.60 85 1011.9
20260905001707 26 145 0.0 0.0 0.00 1.60 1.60 84 1011.7
20260905001205 26 144 0.0 0.0 0.00 1.60 1.60 84 1011.6
20260905000703 26 145 0.0 0.0 0.00 1.60 1.60 85 1011.4
20260905000205 26 145 0.0 0.0 0.00 1.60 1.60 84 1011.4
20260904235706 26 145 0.0 0.0 0.00 1.60 1.60 83 1011.2
20260904235227 26 145 0.0 0.0 0.00 1.60 1.60 82 1011.1
20260904234203 27 145 0.0 0.0 0.00 1.60 1.60 82 1011.1
20260904233702 27 145 0.0 0.0 0.00 1.60 1.60 82 1011.2
20260904233203 27 145 0.0 0.0 0.00 1.60 1.60 81 1011.2
20260904232702 27 145 0.0 0.0 0.00 1.60 1.60 80 1011.3
20260904232153 27 144 0.0 0.0 0.00 1.60 1.60 80 1011.3
20260904231650 27 144 0.0 0.0 0.00 1.60 1.60 79 1011.4
20260904231140 27 145 0.0 0.0 0.00 1.60 1.60 79 1011.3
20260904230639 27 145 0.0 0.0 0.00 1.60 1.60 79 1011.7
20260904230132 27 145 0.0 0.0 0.00 1.60 1.60 79 1011.9
20260904225633 27 145 0.0 1.6 0.00 1.60 1.60 79 1012.0
20260904225134 28 145 0.0 1.6 0.00 1.60 1.60 79 1012.2
20260904224636 28 145 0.0 1.6 0.00 1.60 1.60 80 1012.1
20260904224138 28 145 0.0 1.6 0.00 1.60 1.60 80 1012.3
20260904223633 28 145 0.0 1.6 0.00 1.60 1.60 78 1012.3
20260904223139 28 144 0.0 1.6 0.00 1.60 1.60 78 1012.4
20260904222135 28 144 0.0 3.2 0.00 1.60 1.60 78 1012.4
20260904221134 28 144 0.0 3.2 0.00 1.60 1.60 78 1012.5
20260904220634 28 144 0.0 3.2 0.00 1.60 1.60 79 1012.5
20260904220132 28 144 0.0 3.2 0.00 1.60 1.60 79 1012.4
20260904215635 28 144 0.0 1.6 0.00 1.60 1.60 78 1012.4
20260904215132 28 144 0.0 1.6 0.00 1.60 1.60 77 1012.3
20260904214635 29 144 1.6 1.6 0.00 1.60 1.60 77 1012.3
20260904214133 29 143 1.6 3.2 0.00 1.60 1.60 78 1012.1
20260904213630 29 141 0.0 3.2 0.00 1.60 1.60 76 1011.8
20260904213128 29 129 0.0 3.2 0.00 1.60 1.60 77 1011.4
20260904212621 29 129 0.0 3.2 0.00 1.60 1.60 75 1011.4
20260904212120 29 143 0.0 3.2 0.00 1.60 1.60 75 1011.5
20260904211705 30 143 1.6 3.2 0.00 1.60 1.60 75 1011.9
20260904210618 30 148 1.6 6.4 0.00 1.60 1.60 75 1011.7
20260904210126 30 144 1.6 6.4 0.00 1.60 1.60 74 1011.9
20260904205618 30 198 1.6 4.8 0.00 1.60 1.60 75 1012.2
20260904204618 30 191 1.6 4.8 0.00 1.60 1.60 74 1012.1
20260904204120 30 167 1.6 4.8 0.00 1.60 1.60 72 1012.1
20260904203115 30 178 0.0 4.8 0.00 1.60 1.60 73 1011.9
20260904202110 30 153 1.6 8.0 0.00 1.60 1.60 73 1011.9
20260904201616 30 165 1.6 6.4 0.00 1.60 1.60 75 1011.9
20260904201109 30 198 1.6 3.2 0.00 1.60 1.60 77 1012.1
20260904200608 30 204 1.6 3.2 0.00 1.60 1.60 74 1012.2
20260904195609 29 205 1.6 4.8 0.00 1.60 1.60 76 1012.3
20260904195104 29 204 1.6 3.2 0.00 1.60 1.60 77 1012.3
20260904194608 30 204 1.6 4.8 0.00 1.60 1.60 77 1012.4
20260904194107 30 205 0.0 4.8 0.00 1.60 1.60 76 1012.5
20260904193606 30 205 0.0 4.8 0.00 1.60 1.60 74 1012.5
20260904193202 30 205 0.0 3.2 0.00 1.60 1.60 75 1012.5
20260904192104 30 205 1.6 4.8 0.00 1.60 1.60 75 1012.6
20260904191600 30 148 1.6 4.8 0.00 1.60 1.60 75 1012.6
20260904190058 30 145 1.6 3.2 0.00 1.60 1.60 75 1012.7
20260904185555 30 149 1.6 8.0 0.00 1.60 1.60 76 1012.8
20260904185056 30 153 1.6 8.0 0.00 1.60 1.60 76 1012.9
20260904184558 29 148 1.6 4.8 0.00 1.60 1.60 75 1013.0
20260904184056 29 142 1.6 6.4 0.00 1.60 1.60 74 1013.0
20260904183600 29 150 1.6 6.4 0.00 1.60 1.60 74 1013.0
20260904183100 30 190 1.6 6.4 0.00 1.60 1.60 74 1012.9
20260904182559 30 202 0.0 3.2 0.00 1.60 1.60 75 1013.1
20260904182054 29 202 1.6 3.2 0.00 1.60 1.60 74 1013.0
20260904181600 29 203 1.6 3.2 0.00 1.60 1.60 75 1013.1
20260904181059 29 200 1.6 3.2 0.00 1.60 1.60 76 1013.1
20260904180055 29 186 0.0 4.8 0.00 1.60 1.60 76 1013.2
20260904175602 29 185 1.6 6.4 0.00 1.60 1.60 74 1013.3
20260904174633 29 186 1.6 6.4 0.00 1.60 1.60 75 1013.4
20260904173554 29 200 1.6 3.2 0.00 1.60 1.60 75 1013.3
20260904173049 28 201 1.6 3.2 0.00 1.60 1.60 74 1013.3
20260904171552 28 207 1.6 4.8 0.00 1.60 1.60 77 1013.4
20260904171053 28 180 1.6 4.8 0.00 1.60 1.60 77 1013.3
20260904170551 28 194 1.6 4.8 0.00 1.60 1.60 79 1013.4
20260904170052 28 205 1.6 3.2 0.00 1.60 1.60 78 1013.3
20260904165546 28 205 1.6 6.4 0.00 1.60 1.60 77 1013.4
20260904165055 28 205 3.2 9.7 0.00 1.60 1.60 80 1013.5
20260904164050 28 209 4.8 11.3 0.00 1.60 1.60 79 1013.6
20260904163548 28 210 3.2 11.3 0.00 1.60 1.60 79 1013.7
20260904163046 28 213 4.8 11.3 0.00 1.60 1.60 78 1013.8
20260904162546 28 213 4.8 9.7 0.00 1.60 1.60 78 1013.9
20260904162046 28 215 3.2 11.3 0.00 1.60 1.60 80 1013.9
20260904161618 28 227 3.2 11.3 0.00 1.60 1.60 80 1013.9
20260904160541 27 194 4.8 11.3 0.00 1.60 1.60 79 1014.0
20260904160038 27 182 4.8 9.7 0.00 1.60 1.60 82 1013.9
20260904155539 27 182 4.8 12.9 0.00 1.60 1.60 79 1013.9
20260904154113 27 175 3.2 9.7 0.00 1.60 1.60 82 1013.7
20260904153534 27 198 4.8 12.9 0.00 1.60 1.60 82 1013.8
20260904152034 26 210 4.8 11.3 0.00 1.60 1.60 83 1013.9
20260904151534 26 207 4.8 9.7 0.00 1.60 1.60 83 1013.7
20260904151034 26 146 4.8 16.1 0.00 1.60 1.60 86 1013.8
20260904150539 26 209 4.8 16.1 0.00 1.60 1.60 84 1013.9
20260904145531 26 160 6.4 14.5 0.00 1.60 1.60 87 1013.9
20260904144032 25 211 6.4 12.9 0.00 1.60 1.60 87 1013.9
20260904143535 25 215 6.4 12.9 0.00 1.60 1.60 88 1014.0
20260904142531 25 226 4.8 14.5 0.00 1.60 1.60 90 1013.9
20260904142032 25 173 4.8 14.5 0.00 1.60 1.60 91 1013.9
20260904141532 25 163 4.8 11.3 0.00 1.60 1.60 90 1013.9